TimeCDT,TemperatureF,Dew PointF,Humidity,Sea Level PressureIn,VisibilityMPH,Wind Direction,Wind SpeedMPH,Gust SpeedMPH,PrecipitationIn,Events,Conditions,WindDirDegrees,DateUTC
12:53 AM,78.1,73.9,87,29.94,10.0,Calm,Calm,-,N/A,,Clear,0,2013-07-11 05:53:00
1:53 AM,73.9,72.0,93,29.94,10.0,Calm,Calm,-,N/A,,Clear,0,2013-07-11 06:53:00
2:53 AM,73.0,72.0,96,29.94,10.0,Calm,Calm,-,N/A,,Clear,0,2013-07-11 07:53:00
3:53 AM,73.0,71.1,93,29.95,10.0,Calm,Calm,-,N/A,,Clear,0,2013-07-11 08:53:00
4:53 AM,73.9,71.1,91,29.95,10.0,North,4.6,-,N/A,,Clear,360,2013-07-11 09:53:00
5:53 AM,73.0,70.0,90,29.97,10.0,Calm,Calm,-,N/A,,Clear,0,2013-07-11 10:53:00
6:53 AM,75.0,70.0,84,29.97,10.0,Calm,Calm,-,N/A,,Clear,0,2013-07-11 11:53:00
7:53 AM,77.0,70.0,79,29.98,10.0,NNE,6.9,-,N/A,,Clear,20,2013-07-11 12:53:00
8:53 AM,80.1,71.1,74,29.99,10.0,NNE,4.6,-,N/A,,Clear,20,2013-07-11 13:53:00
9:53 AM,81.0,71.1,72,29.99,10.0,NE,10.4,-,N/A,,Clear,40,2013-07-11 14:53:00
10:43 AM,82.4,69.8,66,30.01,10.0,North,9.2,-,N/A,,Mostly Cloudy,10,2013-07-11 15:43:00
10:53 AM,82.9,69.1,63,30.01,10.0,NNE,11.5,-,N/A,,Mostly Cloudy,30,2013-07-11 15:53:00
11:53 AM,84.0,68.0,58,30.00,10.0,NNE,9.2,-,N/A,,Scattered Clouds,20,2013-07-11 16:53:00
12:53 PM,84.9,66.0,53,30.01,10.0,NE,13.8,20.7,N/A,,Mostly Cloudy,40,2013-07-11 17:53:00
1:53 PM,84.9,63.0,48,30.00,10.0,NNE,13.8,20.7,N/A,,Scattered Clouds,20,2013-07-11 18:53:00
2:53 PM,86.0,63.0,46,30.00,10.0,North,12.7,-,N/A,,Partly Cloudy,360,2013-07-11 19:53:00
3:53 PM,84.9,61.0,44,30.00,10.0,NNE,11.5,-,N/A,,Clear,20,2013-07-11 20:53:00
4:53 PM,84.9,61.0,44,29.99,10.0,NNE,13.8,-,N/A,,Clear,20,2013-07-11 21:53:00
5:53 PM,84.0,59.0,43,29.99,10.0,NNE,12.7,-,N/A,,Clear,20,2013-07-11 22:53:00
6:53 PM,82.0,57.9,44,29.98,10.0,NNE,10.4,-,N/A,,Clear,20,2013-07-11 23:53:00
7:53 PM,78.1,57.9,50,29.98,10.0,NNE,11.5,-,N/A,,Clear,30,2013-07-12 00:53:00
8:53 PM,75.0,59.0,57,29.98,10.0,NNE,8.1,-,N/A,,Clear,30,2013-07-12 01:53:00
9:53 PM,73.0,59.0,61,30.01,10.0,NE,8.1,-,N/A,,Clear,40,2013-07-12 02:53:00
10:53 PM,71.1,57.9,63,30.02,9.0,NE,4.6,-,N/A,,Clear,40,2013-07-12 03:53:00
11:53 PM,64.9,59.0,81,30.03,10.0,Calm,Calm,-,N/A,,Clear,0,2013-07-12 04:53:00